This is the latest recevied weather packets stored in our database for station/object WC4PEM-12. If no packets are shown the sender has not sent any weather packets the latest 1 day(s).
| Time | Temp. | Humidity | Pressure | Rain* | Wind** | Luminosity | Snow |
|---|---|---|---|---|---|---|---|
| 1778008975 | 31.67° C | 45% | 1014.5 hPa | 0 mm | 2.24 m/s, 104° | - | - |
| 1778008675 | 32.22° C | 46% | 1014.5 hPa | 0 mm | 2.24 m/s, 104° | - | - |
| 1778008375 | 31.67° C | 48% | 1014.7 hPa | 0 mm | 2.24 m/s, 104° | - | - |
| 1778008075 | 32.22° C | 47% | 1014.6 hPa | 0 mm | 2.24 m/s, 104° | - | - |
| 1778007775 | 32.22° C | 46% | 1014.6 hPa | 0 mm | 2.24 m/s, 104° | - | - |
| 1778007475 | 32.22° C | 46% | 1014.5 hPa | 0 mm | 2.24 m/s, 104° | - | - |
| 1778007268 | 32.22° C | 46% | 1014.6 hPa | 0 mm | 2.24 m/s, 104° | - | - |
| 1778007175 | 32.22° C | 46% | 1014.6 hPa | 0 mm | 2.24 m/s, 104° | - | - |
| 1778006970 | 32.22° C | 47% | 1014.8 hPa | 0 mm | 2.24 m/s, 104° | - | - |
| 1778006875 | 32.22° C | 47% | 1014.8 hPa | 0 mm | 2.24 m/s, 104° | - | - |
| 1778006575 | 32.22° C | 48% | 1014.7 hPa | 0 mm | 2.24 m/s, 104° | - | - |
| 1778006366 | 31.67° C | 48% | 1014.7 hPa | 0 mm | 2.24 m/s, 104° | - | - |
| 1778006317 | 31.67° C | 48% | 1014.7 hPa | 0 mm | 2.24 m/s, 104° | - | - |
| 1778006275 | 31.67° C | 48% | 1014.7 hPa | 0 mm | 2.24 m/s, 104° | - | - |
| 1778005975 | 31.67° C | 49% | 1015.1 hPa | 0 mm | 2.24 m/s, 104° | - | - |
| 1778005675 | 31.11° C | 53% | 1015.2 hPa | 0 mm | 2.24 m/s, 104° | - | - |
| 1778005515 | 31.11° C | 50% | 1015.3 hPa | 0 mm | 2.24 m/s, 104° | - | - |
| 1778005375 | 31.11° C | 50% | 1015.3 hPa | 0 mm | 2.24 m/s, 104° | - | - |
| 1778005075 | 31.11° C | 50% | 1015.2 hPa | 0 mm | 2.24 m/s, 104° | - | - |
| 1778004916 | 31.11° C | 50% | 1015.3 hPa | 0 mm | 2.24 m/s, 104° | - | - |
| 1778004775 | 31.11° C | 50% | 1015.3 hPa | 0 mm | 2.24 m/s, 104° | - | - |
| 1778004475 | 31.11° C | 51% | 1015.3 hPa | 0 mm | 2.24 m/s, 104° | - | - |
| 1778004175 | 31.11° C | 51% | 1015.4 hPa | 0 mm | 2.24 m/s, 104° | - | - |
| 1778004048 | 31.11° C | 50% | 1015.5 hPa | 0 mm | 2.24 m/s, 104° | - | - |
| 1778003875 | 31.11° C | 50% | 1015.5 hPa | 0 mm | 2.24 m/s, 104° | - | - |
* Rain latest hour (hover to see other rain measurements)
** Current wind speed in m/s (hover to see current wind gust speed)